Total_Precipitation_Accumulation
0.20 0.17 0.27 0.18 0.13 0.14 0.17 0.20 0.23 0.25 0.25 0.24 0.24 0.25 0.23 0.20 0.21 0.24 0.34 0.48 0.47 0.47 0.47 0.48 0.58 0.61 0.57 0.58 0.60 0.57 0.50 0.49 0.51 0.54 0.55 0.60 0.66 0.85 1.06 0.99 0.96 0.67 0.62
0.11 0.11 0.24 0.19 0.13 0.14 0.17 0.21 0.22 0.22 0.22 0.22 0.23 0.24 0.23 0.23 0.26 0.30 0.39 0.52 0.50 0.47 0.43 0.47 0.52 0.50 0.48 0.46 0.45 0.41 0.41 0.46 0.50 0.58 0.56 0.53 0.67 0.94 1.08 1.00 1.05 0.61 0.53
0.09 0.11 0.18 0.22 0.16 0.14 0.16 0.21 0.24 0.23 0.20 0.20 0.21 0.23 0.24 0.32 0.41 0.41 0.46 0.56 0.61 0.56 0.50 0.52 0.45 0.40 0.39 0.35 0.33 0.33 0.36 0.46 0.54 0.70 0.77 0.62 0.53 0.96 1.09 0.99 0.73 0.47 0.49
0.10 0.13 0.15 0.19 0.19 0.16 0.16 0.21 0.24 0.24 0.23 0.24 0.25 0.23 0.22 0.25 0.30 0.34 0.42 0.52 0.58 0.55 0.50 0.38 0.33 0.31 0.26 0.21 0.22 0.28 0.36 0.48 0.63 0.89 1.09 0.89 0.52 0.79 0.94 0.80 0.60 0.46 0.47
0.14 0.12 0.19 0.24 0.24 0.21 0.18 0.21 0.24 0.26 0.27 0.27 0.27 0.25 0.24 0.24 0.28 0.31 0.36 0.44 0.43 0.38 0.34 0.30 0.29 0.26 0.21 0.17 0.19 0.28 0.36 0.49 0.65 0.93 0.98 0.98 0.88 0.80 0.77 0.72 0.63 0.60 0.57
0.21 0.17 0.22 0.28 0.27 0.27 0.23 0.24 0.27 0.27 0.29 0.27 0.27 0.26 0.26 0.28 0.31 0.31 0.31 0.34 0.34 0.34 0.31 0.31 0.31 0.27 0.22 0.19 0.20 0.26 0.34 0.50 0.65 0.64 0.67 0.77 0.76 0.73 0.71 0.77 0.78 0.72 0.64
0.40 0.34 0.32 0.37 0.36 0.32 0.27 0.26 0.26 0.27 0.30 0.27 0.27 0.27 0.26 0.28 0.29 0.28 0.28 0.27 0.28 0.32 0.32 0.31 0.31 0.25 0.29 0.29 0.25 0.28 0.38 0.57 0.63 0.58 0.55 0.81 0.75 0.56 0.71 0.91 1.05 0.92 0.72
0.54 0.51 0.44 0.44 0.42 0.40 0.34 0.32 0.33 0.30 0.30 0.31 0.30 0.27 0.25 0.24 0.25 0.26 0.26 0.24 0.21 0.23 0.26 0.30 0.33 0.29 0.30 0.34 0.29 0.28 0.38 0.50 0.47 0.50 0.47 0.60 0.53 0.52 0.71 0.93 1.08 1.02 0.87
0.66 0.62 0.54 0.49 0.44 0.46 0.43 0.40 0.40 0.38 0.37 0.36 0.33 0.28 0.24 0.23 0.23 0.24 0.25 0.24 0.23 0.23 0.24 0.26 0.28 0.28 0.28 0.31 0.35 0.37 0.44 0.58 0.57 0.61 0.53 0.63 0.58 0.67 0.87 1.02 1.12 1.09 1.04
1.00 0.78 0.65 0.63 0.61 0.57 0.54 0.49 0.48 0.43 0.42 0.43 0.38 0.36 0.33 0.32 0.28 0.31 0.31 0.30 0.32 0.32 0.27 0.24 0.28 0.27 0.31 0.30 0.33 0.47 0.64 0.60 0.48 0.61 0.72 0.62 0.63 0.87 1.13 1.19 1.29 1.29 1.24
1.35 1.10 0.89 0.79 0.76 0.72 0.66 0.59 0.64 0.60 0.57 0.56 0.54 0.52 0.47 0.45 0.47 0.51 0.46 0.50 0.50 0.50 0.50 0.48 0.50 0.48 0.48 0.39 0.44 0.66 0.71 0.54 0.63 0.85 0.90 0.69 0.80 1.12 1.38 1.43 1.44 1.45 1.43
1.50 1.21 1.11 1.02 0.89 0.82 0.71 0.77 0.93 0.85 0.78 0.76 0.83 0.78 0.77 0.82 0.78 0.60 0.64 0.82 0.97 1.02 0.99 1.06 1.17 0.96 0.77 0.79 1.25 1.30 0.67 0.62 0.85 0.99 1.00 0.87 1.08 1.46 1.64 1.71 1.68 1.58 1.53
1.77 1.46 1.34 1.24 1.14 1.11 1.18 1.07 1.09 1.08 1.09 1.05 1.09 1.13 1.14 1.02 0.89 0.84 0.95 1.17 1.36 1.42 1.39 1.71 1.76 1.29 1.36 1.67 1.78 1.54 0.95 0.90 1.11 1.13 1.30 1.32 1.35 1.77 2.17 2.16 2.09 1.88 1.72
2.12 1.80 1.60 1.50 1.49 1.49 1.44 1.37 1.26 1.27 1.29 1.32 1.39 1.40 1.49 1.55 1.45 1.42 1.49 1.54 1.71 1.83 2.05 2.18 2.29 1.99 1.97 1.87 1.73 1.60 1.43 1.50 1.42 1.67 2.04 1.87 1.60 1.84 2.50 2.65 2.52 2.31 1.93
2.31 2.00 1.95 1.73 1.63 1.65 1.74 1.79 1.62 1.69 1.64 1.61 1.72 1.79 1.86 2.04 2.03 1.99 1.87 1.87 1.82 2.00 2.21 2.52 2.45 2.69 2.63 2.34 1.98 1.80 1.81 1.87 1.75 1.96 2.23 2.29 2.11 2.12 2.77 3.17 3.06 2.77 2.37
2.26 2.09 2.05 1.92 1.96 2.05 2.03 2.05 2.11 2.12 2.08 2.03 2.00 2.04 2.08 2.28 2.48 2.41 2.19 2.17 2.06 2.12 2.43 2.67 2.70 3.09 2.92 2.76 2.31 2.14 2.00 1.95 1.91 2.07 2.29 2.48 2.42 2.38 2.70 3.14 3.39 3.29 2.90
2.03 2.14 2.30 2.41 2.59 2.69 2.67 2.62 2.53 2.57 2.48 2.47 2.59 2.59 2.62 2.59 2.61 2.49 2.35 2.25 2.36 2.49 2.65 2.70 2.81 3.14 2.88 2.78 2.61 2.43 2.23 2.05 1.95 2.11 2.39 2.68 2.46 2.39 2.69 3.08 3.43 3.36 3.18
2.06 2.17 2.42 2.53 2.87 3.05 3.09 3.14 3.08 3.02 2.87 2.92 2.92 2.92 2.89 2.79 2.67 2.71 2.48 2.28 2.50 2.64 2.81 2.97 2.94 3.02 3.03 3.00 2.87 2.54 2.38 2.27 2.03 2.08 2.19 2.34 2.49 2.12 2.52 3.08 3.26 3.09 3.10
2.39 2.58 2.92 3.03 2.97 3.06 3.24 3.37 3.18 3.09 2.96 2.87 2.79 2.79 2.69 2.60 2.57 2.83 2.63 2.59 2.72 2.91 2.82 2.63 2.99 3.11 3.05 3.04 2.75 2.61 2.27 2.17 2.09 1.99 2.03 2.12 2.31 2.28 2.28 2.47 2.92 2.82 3.03
2.68 2.96 3.08 3.17 3.40 3.70 3.88 3.77 3.52 3.15 2.87 2.74 2.63 2.51 2.45 2.51 2.54 2.79 2.59 2.62 2.81 3.00 3.05 3.04 3.14 3.10 2.97 3.04 2.69 2.49 2.19 1.91 1.87 1.81 1.68 1.84 1.93 1.76 1.84 2.02 2.36 2.12 2.38
2.65 2.83 3.05 3.40 3.79 3.90 3.78 3.72 3.63 3.29 3.01 2.67 2.38 2.33 2.41 2.36 2.44 2.71 2.46 2.75 2.88 2.93 3.04 3.07 3.20 3.10 2.94 3.10 2.98 2.50 2.03 1.75 1.60 1.46 1.48 1.59 1.55 1.63 1.85 2.13 2.40 2.43 2.19
2.51 2.76 3.10 3.39 3.74 3.70 3.80 3.97 3.86 3.60 3.04 2.68 2.48 2.35 2.34 2.34 2.35 2.47 2.75 2.79 2.87 2.95 2.95 2.89 2.92 2.75 2.57 2.92 2.97 2.76 2.16 1.80 1.48 1.26 1.44 1.44 1.54 1.75 1.79 1.83 2.15 2.47 2.35
2.60 2.98 3.20 3.42 3.55 3.60 3.74 3.82 3.50 3.28 2.84 2.69 2.64 2.46 2.35 2.42 2.45 2.54 2.70 2.78 2.70 2.64 2.68 2.77 2.67 2.54 2.39 2.53 2.77 2.78 2.31 1.84 1.51 1.29 1.30 1.35 1.65 1.81 1.74 1.74 1.76 1.87 1.94
2.61 3.04 3.41 3.39 3.39 3.33 3.46 3.55 3.33 2.98 2.69 2.57 2.53 2.31 2.17 2.14 2.19 2.28 2.35 2.49 2.54 2.52 2.50 2.45 2.43 2.44 2.39 2.28 2.48 2.54 2.40 2.17 1.91 1.46 1.21 1.25 1.49 1.60 1.56 1.45 1.53 1.73 1.84
2.30 2.64 2.99 3.22 3.26 3.14 3.11 3.13 3.14 2.88 2.55 2.38 2.30 2.17 2.09 2.10 1.99 1.98 2.07 2.24 2.27 2.20 2.19 2.31 2.49 2.46 2.32 2.20 2.29 2.37 2.50 2.43 2.13 1.81 1.40 1.29 1.30 1.23 1.33 1.35 1.38 1.48 1.68
2.10 2.39 2.59 2.76 2.83 2.77 2.70 2.68 2.71 2.63 2.48 2.28 2.11 2.11 2.12 2.03 1.88 1.83 1.84 1.93 1.98 1.98 1.95 1.98 2.10 2.15 2.14 2.23 2.24 2.23 2.34 2.33 2.22 2.11 1.72 1.49 1.36 1.09 1.13 1.19 1.28 1.33 1.43